Location: *
(37.5724°S, 58.0067°E)
Time: 10:14:49
(UTC+00:00)

Cosmos 1726 - Pass Details

Date: 20 January 2021
Orbit: 480 x 499 km, 82.5° (Epoch: 27 February)

Event Time Altitude Azimuth Distance (km) Brightness Sun altitude
Rises 23:21:21 0° 166° (SSE) 2,585 6.8 -18.3°
Reaches altitude 10° 23:24:23 10° 138° (SE) 1,696 6.1 -17.9°
Maximum altitude 23:26:19 14° 107° (ESE) 1,476 5.4 -17.6°
Drops below altitude 10° 23:28:15 10° 75° (ENE) 1,687 5.2 -17.3°
Sets 23:31:15 0° 48° (NE) 2,561 5.8 -16.9°
